Hourly Weather Rudajeve

Today, 23 April, Friday

Time Temperature Precipitation Wind Pressure Humidity
00:00 +10°C° 0 mm 3 mps 754 mmHg 83%
01:00 +9°C° 0 mm 3 mps 754 mmHg 86%
02:00 +8°C° 0 mm 3 mps 754 mmHg 90%
03:00 +8°C° 0.1 mm 3 mps 754 mmHg 91%
04:00 +7°C° 0.1 mm 3 mps 754 mmHg 92%
05:00 +7°C° 0.1 mm 3 mps 754 mmHg 93%
06:00 +8°C° 0 mm 4 mps 754 mmHg 84%
07:00 +10°C° 0 mm 4 mps 754 mmHg 75%
08:00 +12°C° 0 mm 5 mps 754 mmHg 66%
09:00 +13°C° 0 mm 5 mps 753 mmHg 59%
10:00 +15°C° 0 mm 6 mps 753 mmHg 53%
11:00 +16°C° 0 mm 6 mps 753 mmHg 47%
12:00 +17°C° 0 mm 7 mps 752 mmHg 45%
13:00 +17°C° 0 mm 7 mps 752 mmHg 42%
14:00 +17°C° 0 mm 7 mps 751 mmHg 40%
15:00 +17°C° 0 mm 7 mps 751 mmHg 43%
16:00 +16°C° 0 mm 6 mps 751 mmHg 46%
17:00 +16°C° 0 mm 6 mps 750 mmHg 49%
18:00 +14°C° 0.2 mm 6 mps 750 mmHg 57%
19:00 +13°C° 0.2 mm 5 mps 750 mmHg 64%
20:00 +12°C° 0.2 mm 5 mps 750 mmHg 72%
21:00 +10°C° 0.4 mm 5 mps 750 mmHg 74%
22:00 +10°C° 0.4 mm 5 mps 750 mmHg 76%
23:00 +9°C° 0.4 mm 5 mps 750 mmHg 78%

Tomorrow, 24 April, Saturday

Time Temperature Precipitation Wind Pressure Humidity
00:00 +9°C° 0.9 mm 6 mps 749 mmHg 81%
01:00 +8°C° 0.9 mm 6 mps 749 mmHg 85%
02:00 +7°C° 0.9 mm 6 mps 749 mmHg 88%
03:00 +6°C° 0.7 mm 5 mps 749 mmHg 87%
04:00 +5°C° 0.7 mm 4 mps 750 mmHg 85%
05:00 +5°C° 0.7 mm 4 mps 750 mmHg 84%
06:00 +6°C° 0 mm 4 mps 750 mmHg 77%
07:00 +7°C° 0 mm 5 mps 750 mmHg 71%
08:00 +8°C° 0 mm 6 mps 751 mmHg 65%
09:00 +9°C° 0.1 mm 7 mps 751 mmHg 57%
10:00 +9°C° 0.1 mm 8 mps 751 mmHg 50%
11:00 +10°C° 0.1 mm 8 mps 751 mmHg 42%
12:00 +10°C° 0 mm 9 mps 751 mmHg 40%
13:00 +10°C° 0 mm 9 mps 751 mmHg 37%
14:00 +10°C° 0 mm 9 mps 751 mmHg 35%
15:00 +8°C° 0 mm 9 mps 752 mmHg 40%
16:00 +9°C° 0 mm 8 mps 752 mmHg 44%
17:00 +8°C° 0 mm 7 mps 752 mmHg 49%
18:00 +7°C° 0 mm 6 mps 753 mmHg 50%
19:00 +6°C° 0 mm 5 mps 753 mmHg 52%
20:00 +5°C° 0 mm 3 mps 754 mmHg 53%
21:00 +4°C° 0 mm 3 mps 754 mmHg 56%
22:00 +3°C° 0 mm 3 mps 754 mmHg 59%
23:00 +3°C° 0 mm 3 mps 754 mmHg 62%

Day after tomorrow, 25 April, Sunday

Time Temperature Precipitation Wind Pressure Humidity
00:00 +2°C° 0 mm 3 mps 754 mmHg 64%
01:00 +2°C° 0 mm 3 mps 754 mmHg 65%
02:00 +1°C° 0 mm 3 mps 754 mmHg 66%
03:00 +1°C° 0 mm 3 mps 754 mmHg 68%
04:00 +2°C° 0 mm 2 mps 755 mmHg 69%
05:00 +2°C° 0 mm 2 mps 755 mmHg 71%
06:00 +4°C° 0 mm 2 mps 755 mmHg 64%
07:00 +6°C° 0 mm 2 mps 755 mmHg 58%
08:00 +7°C° 0 mm 2 mps 755 mmHg 51%
09:00 +9°C° 0 mm 3 mps 754 mmHg 47%
10:00 +10°C° 0 mm 3 mps 754 mmHg 43%
11:00 +11°C° 0 mm 4 mps 754 mmHg 40%
12:00 +11°C° 0 mm 4 mps 754 mmHg 38%
13:00 +12°C° 0 mm 4 mps 753 mmHg 37%
14:00 +12°C° 0 mm 3 mps 753 mmHg 36%
15:00 +12°C° 0 mm 3 mps 752 mmHg 37%
16:00 +12°C° 0 mm 3 mps 752 mmHg 38%
17:00 +12°C° 0 mm 3 mps 752 mmHg 40%
18:00 +11°C° 0 mm 3 mps 752 mmHg 45%
19:00 +10°C° 0 mm 2 mps 752 mmHg 50%
20:00 +8°C° 0 mm 2 mps 752 mmHg 56%
21:00 +8°C° 0 mm 2 mps 752 mmHg 59%
22:00 +7°C° 0 mm 2 mps 752 mmHg 62%
23:00 +7°C° 0 mm 3 mps 752 mmHg 65%

26 April, Monday

Time Temperature Precipitation Wind Pressure Humidity
00:00 +6°C° 0 mm 2 mps 752 mmHg 69%
01:00 +6°C° 0 mm 2 mps 751 mmHg 74%
02:00 +5°C° 0 mm 2 mps 751 mmHg 78%
03:00 +5°C° 0 mm 2 mps 751 mmHg 80%
04:00 +5°C° 0 mm 2 mps 751 mmHg 81%
05:00 +5°C° 0 mm 2 mps 751 mmHg 83%
06:00 +6°C° 0 mm 2 mps 751 mmHg 81%
07:00 +6°C° 0 mm 2 mps 750 mmHg 78%
08:00 +7°C° 0 mm 3 mps 750 mmHg 75%
09:00 +5°C° 0.9 mm 3 mps 750 mmHg 81%
10:00 +4°C° 0.9 mm 4 mps 750 mmHg 88%
11:00 +3°C° 0.9 mm 4 mps 750 mmHg 94%
12:00 +3°C° 0.3 mm 4 mps 750 mmHg 90%
13:00 +4°C° 0.3 mm 3 mps 750 mmHg 87%
14:00 +4°C° 0.3 mm 3 mps 750 mmHg 84%
15:00 +5°C° 0 mm 3 mps 750 mmHg 77%
16:00 +7°C° 0 mm 3 mps 750 mmHg 71%
17:00 +8°C° 0 mm 3 mps 750 mmHg 65%
18:00 +7°C° 0 mm 3 mps 750 mmHg 69%
19:00 +5°C° 0 mm 3 mps 750 mmHg 73%
20:00 +3°C° 0 mm 3 mps 750 mmHg 77%
21:00 +3°C° 0 mm 3 mps 751 mmHg 77%
22:00 +3°C° 0 mm 3 mps 751 mmHg 78%
23:00 +2°C° 0 mm 3 mps 751 mmHg 78%

27 April, Tuesday

Time Temperature Precipitation Wind Pressure Humidity
00:00 +2°C° 0 mm 3 mps 751 mmHg 78%
01:00 +2°C° 0 mm 2 mps 751 mmHg 78%
02:00 +2°C° 0 mm 2 mps 751 mmHg 78%
03:00 +2°C° 0 mm 2 mps 751 mmHg 78%
04:00 +2°C° 0 mm 2 mps 751 mmHg 79%
05:00 +2°C° 0 mm 2 mps 751 mmHg 79%
06:00 +4°C° 0 mm 2 mps 751 mmHg 74%
07:00 +6°C° 0 mm 2 mps 751 mmHg 68%
08:00 +8°C° 0 mm 3 mps 751 mmHg 63%
09:00 +8°C° 0.1 mm 3 mps 752 mmHg 63%
10:00 +7°C° 0.1 mm 4 mps 752 mmHg 64%
11:00 +7°C° 0.1 mm 5 mps 752 mmHg 64%
12:00 +6°C° 0.4 mm 4 mps 752 mmHg 71%
13:00 +6°C° 0.4 mm 4 mps 752 mmHg 77%
14:00 +6°C° 0.4 mm 4 mps 751 mmHg 84%
15:00 +5°C° 0.3 mm 3 mps 751 mmHg 87%
16:00 +5°C° 0.3 mm 2 mps 752 mmHg 90%
17:00 +5°C° 0.3 mm 2 mps 752 mmHg 93%
18:00 +5°C° 0 mm 2 mps 752 mmHg 92%
19:00 +6°C° 0 mm 1 mps 752 mmHg 91%
20:00 +6°C° 0 mm 1 mps 752 mmHg 90%
21:00 +5°C° 0 mm 1 mps 753 mmHg 89%
22:00 +5°C° 0 mm 1 mps 753 mmHg 88%
23:00 +5°C° 0 mm 1 mps 753 mmHg 87%

28 April, Wednesday

Time Temperature Precipitation Wind Pressure Humidity
00:00 +5°C° 0 mm 1 mps 753 mmHg 89%
01:00 +3°C° 0 mm 2 mps 753 mmHg 91%
02:00 +3°C° 0 mm 2 mps 753 mmHg 93%
03:00 +3°C° 0 mm 2 mps 753 mmHg 93%
04:00 +3°C° 0 mm 2 mps 753 mmHg 94%
05:00 +3°C° 0 mm 2 mps 753 mmHg 94%
06:00 +3°C° 0 mm 3 mps 753 mmHg 88%
07:00 +5°C° 0 mm 4 mps 753 mmHg 82%
08:00 +7°C° 0 mm 4 mps 753 mmHg 76%
09:00 +9°C° 0 mm 5 mps 752 mmHg 69%
10:00 +12°C° 0 mm 5 mps 752 mmHg 62%
11:00 +13°C° 0 mm 5 mps 752 mmHg 56%
12:00 +14°C° 0 mm 6 mps 751 mmHg 53%
13:00 +14°C° 0 mm 6 mps 751 mmHg 50%
14:00 +15°C° 0 mm 6 mps 750 mmHg 47%
15:00 +14°C° 0 mm 6 mps 750 mmHg 51%
16:00 +14°C° 0 mm 5 mps 750 mmHg 54%
17:00 +13°C° 0 mm 5 mps 750 mmHg 58%
18:00 +12°C° 0 mm 5 mps 750 mmHg 62%
19:00 +11°C° 0 mm 4 mps 749 mmHg 66%
20:00 +10°C° 0 mm 4 mps 749 mmHg 70%
21:00 +10°C° 0.1 mm 4 mps 749 mmHg 75%
22:00 +10°C° 0.1 mm 4 mps 749 mmHg 80%
23:00 +8°C° 0.1 mm 4 mps 749 mmHg 85%
Show more